• In Deutschland
  • Länderverzeichnis
  • Für 7 Tage
  • Wassertemperatur
  • Satellitenkarten
  • Wetterkarte
  • Widgets
  • user-avatar
    Anmelden

    Stündliche Wetter Limoeiro

    Heute, 22 Juli, Sonntag

    Zeit Temperatur Niederschläge Wind Luftdruck Luftfeuchtigkeit
    00:00 +22°C° 0 mm 3 m/S 747 mmHg 90%
    01:00 +21°C° 0 mm 3 m/S 747 mmHg 91%
    02:00 +21°C° 0 mm 3 m/S 747 mmHg 91%
    03:00 +21°C° 0 mm 3 m/S 747 mmHg 91%
    04:00 +21°C° 0 mm 3 m/S 746 mmHg 91%
    05:00 +21°C° 0 mm 3 m/S 747 mmHg 91%
    06:00 +21°C° 0 mm 3 m/S 747 mmHg 91%
    07:00 +21°C° 0 mm 3 m/S 747 mmHg 91%
    08:00 +23°C° 0 mm 4 m/S 747 mmHg 84%
    09:00 +26°C° 0 mm 5 m/S 747 mmHg 77%
    10:00 +27°C° 0 mm 5 m/S 748 mmHg 71%
    11:00 +28°C° 0,1 mm 5 m/S 748 mmHg 70%
    12:00 +28°C° 0,1 mm 6 m/S 748 mmHg 69%
    13:00 +29°C° 0,1 mm 6 m/S 748 mmHg 68%
    14:00 +29°C° 0,1 mm 6 m/S 747 mmHg 68%
    15:00 +28°C° 0,1 mm 6 m/S 747 mmHg 69%
    16:00 +28°C° 0,1 mm 6 m/S 747 mmHg 70%
    17:00 +27°C° 0 mm 6 m/S 747 mmHg 74%
    18:00 +26°C° 0 mm 5 m/S 747 mmHg 78%
    19:00 +23°C° 0 mm 4 m/S 747 mmHg 82%
    20:00 +23°C° 0 mm 4 m/S 748 mmHg 84%
    21:00 +22°C° 0 mm 4 m/S 748 mmHg 85%
    22:00 +22°C° 0 mm 4 m/S 749 mmHg 87%
    23:00 +22°C° 0 mm 4 m/S 749 mmHg 87%

    Morgen, 23 Juli, Montag

    Zeit Temperatur Niederschläge Wind Luftdruck Luftfeuchtigkeit
    00:00 +21°C° 0 mm 4 m/S 749 mmHg 88%
    01:00 +21°C° 0 mm 4 m/S 749 mmHg 88%
    02:00 +21°C° 0 mm 3 m/S 748 mmHg 89%
    03:00 +21°C° 0 mm 3 m/S 748 mmHg 89%
    04:00 +21°C° 0 mm 3 m/S 747 mmHg 90%
    05:00 +20°C° 0 mm 3 m/S 747 mmHg 90%
    06:00 +20°C° 0 mm 3 m/S 747 mmHg 91%
    07:00 +20°C° 0 mm 3 m/S 748 mmHg 91%
    08:00 +22°C° 0 mm 4 m/S 748 mmHg 82%
    09:00 +25°C° 0 mm 5 m/S 749 mmHg 74%
    10:00 +27°C° 0 mm 6 m/S 749 mmHg 65%
    11:00 +28°C° 0 mm 6 m/S 749 mmHg 63%
    12:00 +28°C° 0 mm 6 m/S 749 mmHg 61%
    13:00 +29°C° 0 mm 6 m/S 749 mmHg 59%
    14:00 +29°C° 0 mm 6 m/S 748 mmHg 59%
    15:00 +29°C° 0 mm 6 m/S 747 mmHg 59%
    16:00 +29°C° 0 mm 6 m/S 747 mmHg 59%
    17:00 +27°C° 0 mm 5 m/S 747 mmHg 66%
    18:00 +25°C° 0 mm 4 m/S 747 mmHg 73%
    19:00 +24°C° 0 mm 3 m/S 748 mmHg 80%
    20:00 +22°C° 0 mm 3 m/S 748 mmHg 84%
    21:00 +22°C° 0 mm 3 m/S 749 mmHg 88%
    22:00 +21°C° 0 mm 2 m/S 749 mmHg 92%
    23:00 +21°C° 0 mm 2 m/S 749 mmHg 93%

    übermorgen, 24 Juli, Dienstag

    Zeit Temperatur Niederschläge Wind Luftdruck Luftfeuchtigkeit
    00:00 +21°C° 0 mm 2 m/S 749 mmHg 94%
    01:00 +21°C° 0 mm 2 m/S 749 mmHg 95%
    02:00 +21°C° 0 mm 2 m/S 748 mmHg 95%
    03:00 +21°C° 0 mm 2 m/S 748 mmHg 95%
    04:00 +21°C° 0 mm 2 m/S 747 mmHg 95%
    05:00 +21°C° 0,1 mm 2 m/S 747 mmHg 95%
    06:00 +21°C° 0,1 mm 2 m/S 748 mmHg 94%
    07:00 +23°C° 0,1 mm 2 m/S 748 mmHg 94%
    08:00 +24°C° 0,2 mm 3 m/S 748 mmHg 89%
    09:00 +25°C° 0,2 mm 4 m/S 749 mmHg 84%
    10:00 +27°C° 0,2 mm 5 m/S 749 mmHg 79%
    11:00 +27°C° 0,3 mm 5 m/S 749 mmHg 77%
    12:00 +27°C° 0,3 mm 5 m/S 749 mmHg 76%
    13:00 +28°C° 0,3 mm 5 m/S 749 mmHg 74%
    14:00 +28°C° 0,2 mm 5 m/S 748 mmHg 73%
    15:00 +28°C° 0,2 mm 5 m/S 748 mmHg 72%
    16:00 +28°C° 0,2 mm 6 m/S 747 mmHg 70%
    17:00 +27°C° 0,1 mm 5 m/S 747 mmHg 76%
    18:00 +25°C° 0,1 mm 4 m/S 748 mmHg 81%
    19:00 +24°C° 0,1 mm 3 m/S 748 mmHg 86%
    20:00 +22°C° 0 mm 3 m/S 749 mmHg 88%
    21:00 +22°C° 0 mm 3 m/S 749 mmHg 90%
    22:00 +21°C° 0 mm 3 m/S 750 mmHg 92%
    23:00 +21°C° 0 mm 3 m/S 749 mmHg 92%

    25 Juli, Mittwoch

    Zeit Temperatur Niederschläge Wind Luftdruck Luftfeuchtigkeit
    00:00 +21°C° 0 mm 2 m/S 749 mmHg 93%
    01:00 +20°C° 0 mm 2 m/S 749 mmHg 94%
    02:00 +20°C° 0 mm 2 m/S 748 mmHg 94%
    03:00 +20°C° 0 mm 2 m/S 748 mmHg 94%
    04:00 +20°C° 0 mm 2 m/S 747 mmHg 94%
    05:00 +20°C° 0 mm 2 m/S 748 mmHg 94%
    06:00 +20°C° 0 mm 2 m/S 748 mmHg 94%
    07:00 +20°C° 0 mm 2 m/S 749 mmHg 94%
    08:00 +22°C° 0 mm 3 m/S 749 mmHg 85%
    09:00 +25°C° 0 mm 4 m/S 749 mmHg 76%
    10:00 +27°C° 0 mm 4 m/S 750 mmHg 67%
    11:00 +28°C° 0 mm 4 m/S 749 mmHg 64%
    12:00 +29°C° 0 mm 4 m/S 749 mmHg 60%
    13:00 +30°C° 0 mm 5 m/S 749 mmHg 57%
    14:00 +29°C° 0 mm 4 m/S 748 mmHg 59%
    15:00 +29°C° 0 mm 4 m/S 748 mmHg 60%
    16:00 +28°C° 0 mm 4 m/S 748 mmHg 62%
    17:00 +27°C° 0 mm 4 m/S 748 mmHg 67%
    18:00 +26°C° 0 mm 3 m/S 748 mmHg 72%
    19:00 +25°C° 0 mm 3 m/S 749 mmHg 78%
    20:00 +24°C° 0 mm 3 m/S 749 mmHg 82%
    21:00 +24°C° 0 mm 3 m/S 749 mmHg 86%
    22:00 +22°C° 0 mm 3 m/S 750 mmHg 91%
    23:00 +22°C° 0 mm 3 m/S 749 mmHg 92%

    26 Juli, Donnerstag

    Zeit Temperatur Niederschläge Wind Luftdruck Luftfeuchtigkeit
    00:00 +22°C° 0 mm 3 m/S 749 mmHg 93%
    01:00 +21°C° 0 mm 3 m/S 749 mmHg 94%
    02:00 +21°C° 0 mm 3 m/S 748 mmHg 94%
    03:00 +21°C° 0 mm 3 m/S 748 mmHg 94%
    04:00 +21°C° 0 mm 3 m/S 748 mmHg 94%
    05:00 +21°C° 0 mm 2 m/S 748 mmHg 94%
    06:00 +21°C° 0 mm 2 m/S 748 mmHg 94%
    07:00 +21°C° 0 mm 2 m/S 749 mmHg 95%
    08:00 +24°C° 0,1 mm 3 m/S 749 mmHg 87%
    09:00 +26°C° 0,1 mm 4 m/S 749 mmHg 79%
    10:00 +28°C° 0,1 mm 5 m/S 750 mmHg 72%
    11:00 +29°C° 0,1 mm 5 m/S 749 mmHg 68%
    12:00 +29°C° 0,1 mm 5 m/S 749 mmHg 65%
    13:00 +30°C° 0,1 mm 5 m/S 748 mmHg 61%
    14:00 +30°C° 0,1 mm 5 m/S 748 mmHg 62%
    15:00 +30°C° 0,1 mm 5 m/S 748 mmHg 62%
    16:00 +30°C° 0,1 mm 5 m/S 747 mmHg 62%
    17:00 +28°C° 0 mm 5 m/S 748 mmHg 69%
    18:00 +26°C° 0 mm 4 m/S 748 mmHg 75%
    19:00 +25°C° 0 mm 3 m/S 748 mmHg 82%
    20:00 +24°C° 0 mm 3 m/S 749 mmHg 85%
    21:00 +24°C° 0 mm 3 m/S 749 mmHg 89%
    22:00 +23°C° 0 mm 2 m/S 749 mmHg 92%
    23:00 +23°C° 0 mm 2 m/S 749 mmHg 93%

    27 Juli, Freitag

    Zeit Temperatur Niederschläge Wind Luftdruck Luftfeuchtigkeit
    00:00 +23°C° 0 mm 2 m/S 748 mmHg 94%
    01:00 +21°C° 0 mm 2 m/S 748 mmHg 94%
    02:00 +21°C° 0 mm 2 m/S 748 mmHg 95%
    03:00 +21°C° 0 mm 2 m/S 748 mmHg 95%
    04:00 +21°C° 0 mm 3 m/S 747 mmHg 95%
    05:00 +21°C° 0 mm 3 m/S 747 mmHg 95%
    06:00 +22°C° 0 mm 3 m/S 748 mmHg 94%
    07:00 +22°C° 0 mm 3 m/S 748 mmHg 94%
    08:00 +24°C° 0 mm 3 m/S 748 mmHg 86%
    09:00 +26°C° 0 mm 4 m/S 749 mmHg 78%
    10:00 +28°C° 0 mm 5 m/S 749 mmHg 69%
    11:00 +29°C° 0,2 mm 5 m/S 749 mmHg 66%
    12:00 +30°C° 0,2 mm 5 m/S 748 mmHg 63%
    13:00 +32°C° 0,2 mm 5 m/S 748 mmHg 60%
    14:00 +30°C° 0,3 mm 5 m/S 747 mmHg 62%
    15:00 +30°C° 0,3 mm 5 m/S 747 mmHg 64%
    16:00 +30°C° 0,3 mm 5 m/S 747 mmHg 66%
    17:00 +28°C° 0,1 mm 5 m/S 747 mmHg 73%
    18:00 +26°C° 0,1 mm 4 m/S 747 mmHg 80%
    19:00 +25°C° 0,1 mm 3 m/S 748 mmHg 87%
    20:00 +24°C° 0 mm 3 m/S 748 mmHg 89%
    21:00 +24°C° 0 mm 3 m/S 748 mmHg 92%
    22:00 +22°C° 0 mm 3 m/S 748 mmHg 94%
    23:00 +23°C° 0 mm 2 m/S 748 mmHg 94%
    Mehr zeigen